Regional Weather Roundup
Issued by NWS Kansas City/Pleasant Hill, MO

Home | Current Version | Previous Version | Text Only | Print | Product List | Glossary On
Versions: 1 2 3 4 5 6 7 8 9 10 11 12 13 14 15 16 17 18 19 20 21 22 23 24 25 26 27 28 29 30 31 32 33 34 35 36 37 38 39 40 41 42 43 44 45 46 47 48 49 50
000
ASUS43 KEAX 130510
RWREAX

WEATHER ROUNDUP FOR EASTERN KANSAS AND NORTHWEST MISSOURI
NATIONAL WEATHER SERVICE KANSAS CITY/PLEASANT HILL MO
1100 PM CST FRI FEB 12 2016

KSZ040-057-103>105-MOZ028-029-037-043-130600-
...KANSAS CITY METROPOLITAN AREA...

CITY           SKY/WX    TMP DP  RH WIND       PRES   REMARKS
K.C. INTL      CLOUDY    19   7  59 N14       30.59S WCI   6
K.C. DOWNTOWN  CLOUDY    22   6  50 NE9       30.61R WCI  12
LEES SUMMIT    CLOUDY    20   5  52 N13       30.59R WCI   7
OLATHE - IXD   CLOUDY    22   6  50 N12       30.58S WCI  10
OLATHE - OJC   CLOUDY    22   6  50 N10       30.57S WCI  11
LAWRENCE       CLOUDY    22   4  46 N9        30.60S WCI  12

$$

MOZ001>008-011>017-020>025-030>033-038>040-044>046-053-054-130600-
...NORTHERN AND CENTRAL MISSOURI...

CITY           SKY/WX    TMP DP  RH WIND       PRES   REMARKS
ST. JOSEPH     CLOUDY    17   5  59 N12       30.63F WCI   4
MOSBY          CLOUDY    19   3  49 N12       30.61F WCI   7
WARRENSBURG    CLOUDY    19   5  53 N10G17    30.61R WCI   8
WHITEMAN AFB   CLOUDY    19   2  48 N10       30.58R WCI   7
CLINTON          N/A     23   9  54 N9        30.59R WCI  13
SEDALIA        CLEAR     20   3  48 N13       30.59R WCI   7
WARSAW         NOT AVBL
CHILLICOTHE      N/A     15   2  56 N10G17    30.63S WCI   2
KIRKSVILLE     CLOUDY    11   1  64 NW13      30.59S WCI  -4

$$

MOZ041-047>049-056>058-063>065-088>090-097-130600-
...EASTERN AND SOUTHERN MISSOURI...

CITY           SKY/WX    TMP DP  RH WIND       PRES   REMARKS
ST. LOUIS INTL CLEAR     20   5  52 NW14      30.53R WCI   7
SPIRIT OF STL  CLEAR     19   2  47 NW13      30.54R WCI   6
COLUMBIA       CLOUDY    19   8  62 N16       30.55R WCI   4
JEFFERSON CITY CLEAR     21   6  52 N9        30.58R WCI  11
ROLLA          CLEAR     20   6  55 N13       30.50R WCI   7
OSAGE BEACH    CLEAR     21   1  42 N8        30.54R WCI  12
SPRINGFIELD    CLEAR     27   9  46 N12       30.49R WCI  17
BRANSON        PTCLDY    28  14  54 N8        30.48R WCI  20
JOPLIN         CLOUDY    31  17  56 N9        30.54R WCI  23
WEST PLAINS    CLEAR     27  10  49 N7        30.46S WCI  19

$$

IAZ060-094-KSZ022-034>040-054-083-096-NEZ052-066-093-130600-
...KANSAS...SOUTHEAST NEBRASKA AND IOWA...

CITY           SKY/WX    TMP DP  RH WIND       PRES   REMARKS
TOPEKA         CLOUDY    23   8  52 N12       30.62R WCI  12
MANHATTAN      CLOUDY    25  13  60 NE12      30.60R WCI  14
EMPORIA        CLOUDY    26   9  48 NE16      30.54F WCI  14
CHANUTE        CLOUDY    30  12  47 N12       30.55R WCI  20
WICHITA        CLOUDY    33  20  58 NE14      30.52R WCI  23
OMAHA          CLOUDY    14   3  61 N10       30.65F WCI   1
LINCOLN        CLOUDY    15   5  64 NE12      30.63F WCI   2
FALLS CITY     CLOUDY    17   4  56 N8        30.62F WCI   7
LAMONI         PTCLDY     9   0  67 N14       30.60R WCI  -7
DES MOINES     CLOUDY     6  -3  66 NW7       30.63R WCI  -6

$$





USA.gov is the U.S. government's official web portal to all federal, state and local government web resources and services.